User: anonymous   Login
Location: Newark
(35.0033°N, 81.0878°W)
Time: 12:58:46
(UTC+00:00)
Language:

EO-79 - Orbit

View from above orbital plane
View from above orbital plane
View from above satellite
View from above satellite

Ground track
Ground track

The orbit data is extracted from the following two-line orbital elements,

1 40025U 14033R   19293.95641635 +.00000233 +00000-0 +30703-4 0  9990
2 40025 097.9044 213.4262 0012901 017.1072 343.0577 14.89001374289305
Epoch (UTC): 20 October 2019 22:57:14
Eccentricity: 0.0012901
inclination: 97.9044°
perigee height: 592 km
apogee height: 610 km
right ascension of ascending node: 213.4262°
argument of perigee: 17.1072°
revolutions per day: 14.89001374
mean anomaly at epoch: 343.0577°
orbit number at epoch: 28930

The dashed part of the orbit path shows where the satellite is in the earth's shadow,  

DLR